Temp
3 3 2 2 2 2 2 2 2 2 1 1 1 1 0 0 0 0 -0 -1 -1 -1 -1 -2 -2 -2 -3 -3 -3 -3 -3 -4 -4 -4 -4 -5 -5 -5 -5 -5 -6 -6 -6 -6 -7 -7 -7 -8 -8 -8 -8 -8 -8 -9 -9 -9 -9 -9 -9 -9 -9 -9 -9 -9 -9 -9 -9 -9 -9
3 3 2 2 2 2 2 2 2 2 1 1 1 1 0 0 0 -0 -0 -1 -1 -1 -2 -2 -2 -2 -3 -3 -3 -3 -3 -4 -4 -4 -4 -4 -5 -5 -5 -5 -6 -6 -6 -6 -7 -7 -7 -7 -8 -8 -8 -8 -8 -9 -9 -9 -9 -9 -9 -10 -10 -10 -10 -9 -9 -9 -9 -9 -9
3 3 2 2 2 2 2 2 2 2 2 1 1 0 0 0 0 -0 -0 -1 -1 -1 -1 -2 -2 -2 -3 -3 -3 -3 -3 -4 -4 -4 -4 -4 -5 -5 -5 -5 -6 -6 -6 -6 -7 -7 -7 -7 -8 -8 -8 -8 -8 -8 -9 -9 -9 -9 -9 -10 -10 -10 -10 -9 -9 -9 -9 -9 -9
3 3 2 2 2 2 2 2 2 2 1 1 1 0 0 0 0 -0 -0 -1 -1 -1 -1 -2 -2 -2 -3 -3 -3 -3 -3 -4 -4 -4 -4 -4 -5 -5 -5 -5 -6 -6 -6 -6 -7 -7 -7 -7 -8 -8 -8 -8 -8 -8 -8 -9 -9 -9 -9 -10 -10 -10 -10 -9 -9 -9 -9 -9 -10
3 3 2 2 2 2 2 2 2 2 1 1 0 0 0 0 0 -0 -0 -1 -1 -1 -1 -2 -2 -2 -3 -3 -3 -3 -3 -4 -4 -4 -4 -4 -5 -5 -5 -5 -6 -6 -6 -6 -7 -7 -7 -7 -8 -8 -8 -8 -8 -8 -8 -9 -9 -9 -9 -10 -10 -10 -10 -10 -9 -9 -9 -10 -10
3 3 2 2 2 2 2 2 2 1 1 1 0 0 0 0 0 -0 -0 -0 -1 -1 -2 -2 -2 -2 -3 -3 -3 -3 -3 -4 -4 -4 -4 -4 -5 -5 -5 -5 -6 -6 -6 -6 -7 -7 -7 -7 -7 -8 -8 -8 -8 -8 -8 -9 -9 -9 -9 -9 -10 -10 -10 -10 -9 -9 -10 -10 -10
3 3 2 2 2 2 2 2 1 1 1 1 0 0 0 0 0 -0 -0 -1 -1 -1 -2 -2 -2 -2 -3 -3 -3 -3 -3 -4 -4 -4 -4 -4 -5 -5 -5 -5 -6 -6 -6 -6 -7 -7 -7 -7 -7 -7 -8 -8 -8 -8 -8 -9 -9 -9 -9 -9 -9 -9 -9 -10 -10 -10 -10 -10 -10
3 3 2 2 2 2 1 1 1 1 1 1 1 1 1 0 0 -0 -1 -1 -1 -1 -2 -2 -2 -2 -3 -3 -3 -3 -3 -4 -4 -4 -4 -5 -5 -5 -5 -5 -6 -6 -6 -6 -7 -7 -7 -7 -7 -7 -7 -8 -8 -8 -8 -9 -9 -9 -9 -9 -9 -9 -9 -9 -10 -10 -10 -10 -10
3 2 2 2 1 1 1 1 1 1 1 1 1 1 0 0 -0 -0 -1 -1 -1 -1 -2 -2 -2 -2 -3 -3 -3 -3 -3 -4 -4 -4 -4 -5 -5 -5 -5 -5 -6 -6 -6 -6 -7 -7 -7 -7 -7 -7 -7 -8 -8 -8 -8 -8 -9 -9 -9 -9 -9 -9 -9 -9 -10 -10 -10 -10 -10
3 2 2 2 1 1 1 1 1 1 1 1 1 1 0 0 -0 -0 -1 -1 -1 -1 -1 -2 -2 -2 -2 -3 -3 -3 -3 -4 -4 -4 -4 -5 -5 -5 -5 -5 -6 -6 -6 -6 -7 -7 -7 -7 -7 -7 -7 -7 -8 -8 -8 -8 -9 -9 -9 -9 -9 -9 -9 -9 -9 -10 -10 -10 -10
3 2 2 2 1 1 1 1 1 1 1 1 1 1 0 -0 -0 -0 -1 -1 -1 -1 -1 -2 -2 -2 -2 -3 -3 -3 -4 -4 -4 -4 -5 -5 -5 -5 -5 -5 -6 -6 -6 -6 -7 -7 -7 -7 -7 -7 -7 -7 -8 -8 -8 -8 -9 -9 -9 -9 -9 -9 -9 -9 -9 -9 -9 -10 -10
3 2 2 1 1 1 1 1 1 1 1 1 1 1 0 0 -0 -0 -1 -1 -1 -1 -1 -2 -2 -2 -3 -3 -3 -3 -4 -4 -4 -4 -5 -5 -5 -5 -5 -5 -6 -6 -6 -6 -7 -7 -7 -7 -7 -7 -7 -7 -8 -8 -8 -8 -9 -9 -9 -9 -9 -9 -9 -9 -9 -9 -9 -9 -10
3 2 2 1 1 1 1 1 1 1 1 1 1 1 0 -0 -0 -1 -1 -1 -1 -1 -1 -2 -2 -2 -3 -3 -3 -4 -4 -4 -4 -4 -5 -5 -5 -5 -5 -5 -6 -6 -6 -6 -7 -7 -7 -7 -7 -7 -7 -7 -7 -8 -8 -8 -9 -9 -9 -9 -9 -9 -9 -9 -9 -9 -9 -9 -10
3 2 2 1 1 1 1 1 1 1 1 1 1 1 0 -0 -0 -1 -1 -1 -1 -1 -1 -2 -2 -2 -3 -3 -3 -4 -4 -4 -4 -5 -5 -5 -5 -5 -5 -5 -6 -6 -6 -6 -7 -7 -7 -7 -7 -7 -7 -7 -7 -8 -8 -8 -8 -9 -9 -9 -9 -9 -9 -9 -9 -9 -9 -9 -9
3 2 2 1 1 1 1 1 1 1 1 1 1 1 0 -0 -1 -1 -1 -1 -1 -1 -1 -2 -2 -2 -3 -3 -4 -4 -4 -4 -4 -5 -5 -5 -5 -5 -5 -5 -6 -6 -6 -6 -7 -7 -7 -7 -7 -7 -7 -7 -7 -7 -8 -8 -8 -8 -9 -9 -9 -9 -9 -9 -9 -9 -9 -9 -9
3 2 2 1 1 1 1 1 1 1 1 1 1 1 0 -0 -1 -1 -1 -1 -1 -1 -1 -1 -2 -2 -3 -3 -4 -4 -4 -4 -4 -5 -5 -5 -5 -5 -5 -6 -6 -6 -6 -6 -6 -7 -7 -7 -7 -7 -7 -7 -7 -7 -8 -8 -8 -8 -8 -9 -9 -9 -9 -9 -9 -9 -9 -9 -9
3 2 2 1 1 1 1 1 1 1 1 1 1 1 0 -0 -1 -1 -1 -1 -1 -1 -1 -1 -2 -3 -3 -3 -4 -4 -4 -4 -4 -5 -5 -5 -5 -5 -5 -6 -6 -6 -6 -6 -6 -6 -6 -7 -7 -7 -7 -7 -7 -7 -7 -8 -8 -8 -8 -8 -8 -8 -8 -9 -9 -9 -9 -9 -9
3 2 2 1 1 1 1 1 1 1 1 1 1 0 0 -0 -1 -1 -1 -1 -1 -1 -1 -2 -2 -3 -3 -4 -4 -4 -4 -4 -4 -5 -5 -5 -5 -5 -5 -6 -6 -6 -6 -6 -6 -6 -6 -6 -7 -7 -7 -7 -7 -7 -7 -7 -8 -8 -8 -8 -8 -8 -8 -8 -9 -9 -9 -9 -9
3 2 2 2 1 1 1 1 1 1 1 1 1 0 -0 -1 -1 -1 -1 -1 -1 -1 -1 -2 -2 -3 -3 -4 -4 -4 -4 -4 -5 -5 -5 -5 -5 -5 -6 -6 -6 -6 -6 -6 -6 -6 -6 -6 -6 -7 -7 -7 -7 -7 -7 -7 -8 -8 -8 -8 -8 -8 -8 -8 -8 -8 -9 -9 -9
3 3 2 2 1 1 1 1 1 1 1 1 1 0 -0 -1 -1 -1 -1 -1 -1 -1 -2 -2 -2 -3 -3 -4 -4 -4 -4 -4 -5 -5 -5 -5 -5 -5 -6 -6 -6 -6 -6 -6 -6 -6 -6 -6 -6 -6 -7 -7 -7 -7 -7 -7 -8 -8 -8 -8 -8 -8 -8 -8 -8 -8 -8 -8 -8
3 3 2 2 2 1 1 1 1 1 1 1 0 -0 -0 -1 -1 -1 -1 -1 -2 -2 -2 -2 -2 -3 -3 -4 -4 -4 -4 -5 -5 -5 -5 -5 -5 -5 -6 -6 -6 -6 -6 -6 -6 -6 -6 -6 -6 -6 -6 -7 -7 -7 -7 -7 -8 -8 -8 -7 -7 -7 -7 -7 -7 -7 -8 -8 -8
4 3 3 2 2 1 1 1 1 1 1 0 0 -0 -1 -1 -1 -1 -2 -2 -2 -2 -2 -2 -2 -3 -3 -4 -4 -4 -4 -5 -5 -5 -5 -5 -5 -5 -6 -6 -6 -6 -6 -6 -6 -6 -6 -6 -6 -6 -6 -7 -7 -7 -7 -7 -7 -7 -7 -7 -7 -7 -7 -7 -7 -7 -7 -8 -8
4 3 3 2 1 1 1 1 1 1 0 0 -0 -0 -1 -1 -1 -2 -2 -2 -2 -2 -2 -2 -2 -3 -3 -4 -4 -4 -4 -5 -5 -5 -5 -5 -5 -6 -6 -6 -6 -6 -6 -6 -6 -6 -6 -6 -6 -6 -6 -7 -7 -7 -7 -7 -7 -7 -7 -7 -7 -7 -7 -7 -7 -7 -8 -8 -8
4 3 2 2 1 1 1 1 0 0 0 0 -0 -0 -1 -1 -1 -2 -2 -2 -2 -2 -2 -2 -3 -3 -3 -4 -4 -4 -4 -5 -5 -5 -5 -5 -5 -6 -6 -6 -6 -6 -6 -6 -6 -6 -6 -6 -6 -6 -6 -6 -6 -6 -7 -7 -7 -7 -7 -7 -7 -7 -7 -7 -7 -8 -8 -8 -8
4 3 2 2 1 1 1 0 0 0 0 -0 -0 -1 -1 -1 -2 -2 -2 -3 -2 -2 -2 -2 -3 -3 -3 -4 -4 -4 -4 -5 -5 -5 -5 -5 -5 -6 -6 -6 -6 -6 -6 -6 -6 -6 -6 -6 -6 -6 -6 -6 -7 -7 -7 -7 -8 -8 -8 -8 -8 -8 -8 -8 -8 -8 -8 -8 -8
4 3 2 2 1 1 1 0 0 0 -0 -0 -0 -1 -1 -1 -2 -2 -3 -3 -3 -2 -2 -3 -3 -3 -3 -4 -4 -4 -4 -5 -5 -5 -5 -5 -5 -6 -6 -6 -6 -6 -6 -6 -6 -6 -6 -6 -6 -7 -7 -7 -8 -8 -8 -9 -9 -9 -9 -9 -9 -9 -9 -8 -8 -8 -8 -8 -8
3 3 2 2 1 1 1 0 0 -0 -0 -0 -1 -1 -1 -2 -2 -3 -3 -3 -3 -3 -3 -3 -3 -3 -3 -4 -4 -4 -4 -5 -5 -5 -5 -5 -5 -5 -6 -6 -6 -6 -6 -6 -6 -6 -6 -6 -6 -7 -7 -8 -8 -9 -9 -9 -9 -9 -9 -9 -9 -9 -8 -8 -8 -8 -8 -8 -8
3 3 2 2 1 1 1 0 0 -0 -0 -1 -1 -1 -2 -2 -3 -3 -3 -3 -3 -3 -3 -3 -3 -3 -3 -4 -4 -4 -4 -5 -5 -5 -5 -5 -5 -5 -5 -6 -6 -6 -6 -6 -6 -6 -6 -6 -6 -7 -7 -8 -8 -9 -9 -9 -9 -9 -9 -9 -9 -8 -8 -8 -8 -8 -8 -8 -8
3 3 2 1 1 1 0 0 -0 -0 -0 -1 -1 -1 -2 -2 -3 -3 -3 -3 -3 -3 -3 -3 -3 -3 -3 -4 -4 -4 -4 -5 -5 -5 -5 -5 -5 -5 -5 -6 -6 -6 -6 -6 -6 -6 -6 -6 -6 -6 -7 -8 -8 -9 -9 -9 -9 -9 -9 -8 -8 -8 -8 -8 -8 -8 -8 -8 -8
3 2 2 1 1 1 0 0 -0 -0 -1 -1 -1 -2 -2 -3 -3 -3 -3 -3 -3 -3 -3 -3 -3 -3 -3 -4 -4 -4 -4 -5 -5 -5 -5 -5 -5 -5 -5 -6 -6 -6 -6 -6 -6 -6 -6 -6 -6 -6 -7 -7 -9 -9 -9 -9 -9 -9 -9 -8 -8 -8 -8 -8 -8 -8 -8 -8 -8
3 2 2 1 1 0 0 -0 -0 -1 -1 -1 -2 -2 -3 -3 -3 -3 -3 -3 -3 -3 -3 -3 -3 -3 -3 -4 -4 -4 -4 -5 -5 -5 -5 -5 -5 -5 -5 -6 -6 -6 -6 -6 -6 -6 -6 -6 -6 -6 -7 -8 -9 -9 -9 -9 -9 -9 -8 -8 -8 -7 -7 -7 -8 -8 -8 -8 -8
3 2 2 1 1 0 0 -0 -1 -1 -2 -2 -2 -2 -3 -3 -3 -3 -3 -3 -3 -3 -3 -3 -3 -3 -3 -4 -4 -4 -4 -5 -5 -5 -5 -5 -5 -5 -6 -6 -6 -6 -6 -6 -6 -6 -6 -6 -6 -6 -7 -7 -8 -9 -9 -9 -9 -8 -8 -8 -7 -7 -7 -7 -8 -8 -8 -8 -8
3 2 1 1 1 0 -0 -1 -1 -2 -2 -2 -2 -3 -3 -3 -3 -3 -3 -3 -3 -3 -3 -3 -3 -3 -4 -4 -4 -4 -4 -5 -5 -5 -5 -5 -5 -6 -6 -6 -6 -6 -6 -6 -6 -6 -6 -6 -6 -6 -6 -7 -8 -9 -9 -8 -8 -8 -7 -7 -7 -7 -7 -7 -8 -8 -8 -8 -8
3 2 2 1 1 0 -0 -1 -1 -2 -2 -2 -3 -3 -3 -3 -3 -3 -3 -3 -3 -3 -3 -3 -4 -4 -4 -4 -4 -4 -4 -5 -5 -5 -5 -5 -6 -6 -6 -6 -6 -6 -6 -6 -6 -6 -6 -6 -6 -6 -6 -7 -8 -8 -8 -8 -8 -7 -7 -7 -7 -7 -7 -7 -8 -8 -8 -8 -8
3 2 2 1 1 -0 -1 -1 -2 -2 -2 -3 -3 -3 -3 -3 -3 -3 -3 -3 -3 -3 -3 -4 -4 -4 -4 -4 -4 -4 -4 -4 -5 -5 -5 -5 -6 -6 -6 -6 -6 -6 -6 -6 -6 -6 -6 -6 -6 -6 -6 -7 -7 -7 -7 -7 -7 -7 -7 -7 -7 -7 -7 -7 -8 -8 -8 -8 -8
3 2 2 1 0 -0 -1 -1 -2 -2 -2 -3 -3 -3 -3 -3 -3 -3 -3 -3 -3 -3 -3 -4 -4 -4 -4 -4 -4 -4 -4 -4 -5 -5 -5 -5 -6 -6 -6 -6 -6 -6 -6 -6 -6 -6 -6 -6 -6 -6 -6 -6 -7 -7 -7 -7 -7 -7 -7 -7 -7 -7 -7 -7 -8 -8 -8 -8 -8
3 2 2 1 0 -0 -1 -1 -2 -2 -2 -2 -3 -3 -3 -3 -3 -3 -3 -3 -3 -3 -3 -4 -4 -4 -4 -4 -4 -4 -4 -5 -5 -5 -5 -5 -5 -5 -5 -5 -6 -6 -6 -6 -6 -5 -5 -5 -6 -6 -6 -6 -6 -7 -7 -7 -7 -7 -7 -7 -7 -7 -7 -7 -8 -8 -8 -8 -8
3 2 2 1 0 -0 -1 -1 -2 -2 -2 -2 -3 -3 -3 -3 -3 -3 -3 -3 -3 -3 -4 -4 -4 -4 -4 -4 -4 -4 -4 -5 -5 -5 -5 -5 -5 -5 -5 -5 -5 -5 -6 -6 -5 -5 -5 -5 -5 -5 -6 -6 -7 -7 -7 -8 -7 -7 -7 -7 -7 -7 -7 -7 -7 -8 -8 -8 -8
3 2 2 1 0 -0 -1 -1 -2 -2 -2 -2 -3 -3 -3 -3 -3 -3 -3 -3 -3 -3 -4 -4 -4 -4 -4 -4 -4 -4 -4 -5 -5 -5 -5 -5 -5 -5 -5 -5 -5 -5 -5 -5 -5 -5 -5 -5 -5 -5 -6 -6 -7 -7 -8 -8 -7 -7 -7 -7 -7 -7 -7 -7 -7 -7 -8 -8 -8
3 2 2 1 0 -0 -1 -1 -2 -2 -2 -2 -3 -3 -3 -3 -3 -3 -3 -3 -3 -3 -4 -4 -4 -4 -4 -4 -4 -4 -4 -5 -5 -5 -5 -5 -5 -5 -5 -5 -5 -5 -5 -5 -5 -5 -5 -5 -5 -5 -6 -6 -7 -7 -8 -8 -8 -7 -7 -7 -7 -7 -7 -7 -7 -7 -8 -8 -8
3 2 2 1 1 -0 -1 -1 -2 -2 -2 -2 -3 -3 -3 -3 -3 -3 -3 -3 -3 -4 -4 -4 -4 -4 -4 -4 -4 -4 -4 -4 -5 -5 -5 -5 -5 -5 -5 -5 -5 -5 -5 -5 -5 -5 -5 -5 -5 -5 -5 -6 -7 -7 -8 -8 -8 -8 -7 -7 -7 -7 -7 -7 -7 -7 -8 -8 -8
Height
1495 1496 1496 1496 1497 1497 1497 1498 1498 1499 1499 1499 1499 1499 1499 1499 1498 1498 1498 1498 1497 1497 1497 1497 1496 1496 1496 1496 1495 1495 1494 1494 1493 1493 1492 1491 1491 1491 1490 1490 1489 1488 1487 1486 1486 1485 1484 1483 1482 1481 1481 1480 1479 1479 1478 1478 1478 1477 1477 1476 1475 1475 1473 1472 1471 1471 1470 1469 1468
1493 1493 1494 1494 1495 1495 1495 1496 1496 1496 1496 1496 1497 1497 1497 1496 1496 1496 1496 1496 1496 1496 1495 1495 1495 1494 1494 1494 1493 1493 1492 1492 1491 1491 1491 1490 1490 1489 1488 1488 1487 1486 1486 1485 1484 1483 1482 1481 1481 1480 1479 1478 1478 1477 1477 1476 1476 1476 1475 1474 1474 1473 1472 1471 1470 1469 1468 1467 1467
1490 1491 1491 1492 1492 1492 1493 1493 1494 1494 1494 1495 1495 1495 1495 1495 1494 1494 1494 1494 1494 1493 1493 1493 1493 1493 1492 1492 1491 1491 1491 1491 1490 1490 1489 1488 1488 1487 1487 1486 1486 1485 1484 1483 1482 1481 1481 1480 1479 1478 1477 1476 1476 1476 1475 1475 1475 1474 1473 1472 1471 1471 1470 1469 1468 1467 1466 1466 1465
1488 1488 1489 1489 1489 1490 1491 1491 1492 1492 1493 1493 1493 1493 1493 1492 1492 1492 1492 1492 1492 1491 1491 1491 1491 1491 1491 1490 1490 1490 1489 1489 1488 1488 1487 1487 1486 1486 1485 1485 1484 1483 1482 1482 1481 1480 1479 1478 1477 1476 1476 1475 1474 1474 1473 1473 1473 1472 1471 1471 1470 1469 1468 1467 1466 1466 1465 1463 1463
1485 1486 1486 1487 1487 1488 1489 1489 1490 1490 1491 1491 1491 1491 1491 1490 1490 1490 1490 1490 1490 1490 1489 1489 1489 1489 1489 1488 1488 1488 1487 1487 1486 1486 1486 1485 1485 1484 1483 1483 1482 1481 1481 1480 1479 1478 1477 1476 1476 1475 1474 1473 1473 1472 1472 1471 1471 1470 1469 1469 1468 1467 1466 1465 1464 1464 1463 1461 1461
1482 1483 1484 1485 1486 1486 1487 1487 1488 1488 1489 1489 1488 1488 1488 1488 1488 1488 1488 1488 1488 1488 1488 1487 1487 1487 1487 1486 1486 1486 1486 1485 1485 1484 1484 1483 1483 1482 1482 1481 1481 1480 1479 1479 1478 1477 1476 1475 1474 1473 1472 1472 1471 1471 1470 1470 1469 1468 1467 1466 1466 1465 1464 1463 1462 1462 1461 1459 1458
1480 1481 1482 1482 1483 1484 1485 1485 1486 1486 1486 1486 1486 1486 1486 1486 1486 1486 1486 1486 1486 1486 1486 1486 1485 1485 1485 1485 1484 1484 1484 1483 1483 1482 1482 1481 1481 1481 1480 1479 1479 1478 1478 1477 1476 1475 1474 1473 1472 1471 1471 1470 1469 1469 1468 1468 1467 1466 1465 1464 1464 1463 1462 1461 1461 1460 1459 1457 1456
1478 1479 1480 1480 1481 1482 1482 1483 1483 1483 1483 1483 1483 1484 1484 1485 1485 1485 1485 1484 1484 1484 1484 1484 1484 1483 1483 1483 1482 1482 1482 1481 1481 1481 1480 1480 1479 1479 1478 1478 1477 1477 1476 1475 1475 1474 1473 1472 1471 1470 1469 1468 1468 1467 1467 1466 1466 1465 1463 1462 1462 1461 1461 1460 1459 1458 1456 1455 1454
1475 1476 1477 1478 1479 1479 1480 1481 1481 1481 1481 1481 1481 1482 1482 1482 1482 1482 1482 1482 1482 1482 1482 1482 1482 1482 1481 1481 1481 1481 1480 1480 1479 1479 1478 1478 1477 1477 1476 1476 1476 1475 1474 1474 1473 1472 1471 1470 1469 1468 1468 1467 1466 1466 1465 1465 1464 1463 1462 1461 1460 1459 1458 1458 1457 1456 1455 1453 1452
1472 1473 1475 1476 1476 1477 1478 1478 1478 1478 1479 1479 1479 1480 1480 1480 1481 1481 1481 1481 1481 1481 1480 1480 1480 1480 1480 1479 1479 1479 1478 1478 1477 1477 1476 1476 1476 1475 1475 1474 1474 1473 1473 1472 1471 1470 1469 1468 1467 1467 1466 1466 1465 1464 1463 1463 1462 1461 1460 1459 1458 1457 1456 1456 1455 1454 1453 1452 1450
1469 1471 1472 1473 1474 1475 1475 1476 1476 1476 1476 1477 1477 1478 1478 1478 1478 1478 1479 1479 1479 1478 1478 1478 1478 1478 1478 1477 1477 1477 1476 1476 1476 1475 1475 1474 1474 1473 1473 1472 1472 1471 1471 1470 1470 1469 1468 1467 1466 1465 1465 1464 1463 1462 1461 1461 1460 1459 1458 1457 1456 1455 1454 1453 1453 1452 1451 1450 1449
1467 1468 1470 1471 1471 1472 1473 1473 1473 1473 1474 1475 1475 1476 1476 1476 1476 1477 1477 1477 1476 1476 1477 1477 1476 1476 1476 1476 1476 1475 1475 1474 1474 1474 1473 1473 1472 1472 1471 1471 1470 1470 1469 1469 1468 1467 1466 1465 1464 1463 1463 1462 1461 1461 1460 1459 1458 1457 1456 1455 1454 1453 1452 1451 1451 1451 1450 1448 1447
1464 1466 1467 1468 1469 1469 1470 1470 1470 1471 1471 1472 1473 1473 1474 1474 1475 1475 1475 1475 1475 1475 1475 1475 1475 1474 1474 1474 1474 1473 1473 1473 1472 1472 1471 1471 1471 1470 1470 1469 1469 1468 1467 1467 1466 1465 1464 1463 1463 1462 1461 1460 1460 1459 1458 1457 1456 1455 1454 1453 1452 1451 1451 1450 1449 1448 1448 1446 1445
1462 1463 1464 1465 1466 1466 1467 1467 1468 1468 1469 1470 1471 1471 1472 1472 1473 1473 1473 1473 1473 1473 1473 1473 1473 1472 1472 1472 1472 1472 1471 1471 1471 1470 1470 1469 1469 1468 1468 1467 1467 1466 1466 1465 1464 1464 1463 1462 1461 1460 1460 1459 1458 1457 1456 1456 1455 1454 1452 1451 1451 1450 1449 1448 1447 1446 1446 1445 1443
1459 1460 1461 1462 1463 1463 1464 1464 1465 1466 1467 1468 1468 1469 1470 1470 1471 1471 1471 1471 1471 1471 1471 1471 1471 1471 1471 1470 1470 1470 1470 1469 1469 1468 1468 1467 1467 1467 1466 1466 1465 1465 1464 1463 1463 1462 1461 1460 1459 1459 1458 1457 1456 1456 1455 1454 1453 1452 1451 1450 1449 1448 1447 1446 1446 1445 1444 1443 1441
1455 1456 1458 1459 1460 1460 1461 1461 1462 1463 1464 1465 1466 1467 1468 1468 1469 1469 1469 1469 1470 1470 1470 1469 1469 1469 1469 1469 1468 1468 1468 1468 1467 1467 1466 1466 1466 1465 1464 1464 1463 1463 1462 1461 1461 1460 1459 1459 1458 1457 1456 1455 1454 1454 1453 1452 1451 1450 1450 1449 1447 1446 1446 1445 1444 1443 1442 1441 1440
1452 1453 1454 1456 1456 1457 1458 1459 1460 1461 1462 1463 1464 1465 1466 1466 1466 1467 1467 1468 1468 1468 1468 1468 1468 1467 1467 1467 1467 1466 1466 1466 1466 1465 1465 1464 1464 1463 1463 1462 1462 1461 1461 1460 1459 1458 1458 1457 1456 1456 1455 1454 1453 1452 1451 1450 1449 1449 1448 1447 1446 1445 1444 1443 1442 1442 1441 1440 1438
1449 1450 1451 1452 1453 1454 1455 1456 1457 1459 1460 1461 1462 1463 1464 1464 1465 1465 1466 1466 1466 1466 1466 1466 1466 1466 1465 1465 1465 1465 1465 1464 1464 1463 1463 1462 1462 1461 1461 1461 1460 1460 1459 1458 1457 1457 1456 1456 1455 1454 1453 1452 1451 1450 1449 1449 1448 1447 1446 1445 1445 1444 1443 1442 1441 1441 1439 1438 1437
1446 1447 1448 1449 1451 1452 1453 1454 1456 1456 1458 1459 1460 1461 1462 1462 1463 1463 1464 1464 1465 1465 1465 1465 1464 1464 1464 1464 1463 1463 1463 1462 1462 1462 1461 1461 1460 1460 1459 1459 1458 1458 1457 1456 1456 1455 1454 1454 1453 1452 1451 1451 1450 1449 1448 1447 1446 1446 1445 1444 1443 1442 1441 1441 1440 1439 1438 1436 1435
1443 1444 1445 1446 1448 1450 1451 1452 1453 1455 1456 1457 1458 1459 1460 1460 1461 1461 1462 1463 1463 1463 1463 1463 1462 1462 1462 1462 1462 1461 1461 1461 1461 1460 1460 1459 1459 1458 1458 1457 1457 1456 1456 1455 1454 1453 1453 1452 1451 1451 1450 1449 1448 1447 1446 1446 1445 1444 1443 1442 1441 1441 1440 1439 1438 1436 1436 1434 1433
1440 1441 1443 1444 1446 1447 1449 1450 1451 1453 1454 1455 1456 1457 1458 1458 1459 1460 1461 1461 1461 1461 1461 1461 1461 1461 1460 1460 1460 1460 1460 1459 1459 1458 1458 1457 1457 1457 1456 1456 1455 1454 1454 1453 1452 1452 1451 1450 1450 1449 1448 1447 1446 1446 1445 1444 1443 1443 1442 1441 1440 1439 1438 1437 1436 1435 1433 1432 1431
1437 1439 1440 1442 1444 1445 1446 1448 1449 1450 1451 1452 1454 1455 1456 1456 1457 1458 1459 1459 1460 1460 1459 1459 1459 1459 1459 1459 1459 1458 1458 1458 1457 1456 1456 1456 1456 1455 1455 1454 1453 1453 1452 1451 1451 1450 1450 1449 1448 1447 1446 1446 1445 1444 1443 1442 1442 1441 1440 1439 1438 1437 1436 1435 1434 1433 1431 1430 1429
1435 1436 1438 1440 1441 1443 1444 1445 1446 1448 1449 1450 1451 1452 1453 1454 1455 1456 1457 1457 1458 1458 1457 1457 1457 1457 1457 1457 1457 1456 1456 1456 1455 1455 1455 1454 1454 1454 1453 1452 1452 1451 1451 1450 1449 1449 1448 1447 1446 1446 1445 1444 1443 1442 1442 1441 1440 1439 1438 1437 1436 1435 1434 1433 1432 1431 1429 1428 1426
1432 1434 1435 1437 1438 1440 1441 1442 1444 1445 1446 1448 1449 1450 1451 1452 1454 1454 1455 1455 1456 1456 1456 1456 1456 1456 1455 1455 1455 1455 1454 1454 1454 1453 1453 1453 1452 1452 1451 1451 1450 1449 1449 1448 1448 1447 1446 1445 1445 1444 1443 1442 1441 1441 1440 1439 1438 1437 1436 1435 1434 1432 1431 1431 1429 1428 1427 1426 1425
1430 1431 1432 1434 1435 1437 1438 1440 1441 1443 1445 1446 1447 1448 1450 1451 1451 1452 1453 1453 1453 1454 1454 1454 1454 1454 1453 1453 1453 1453 1452 1452 1452 1451 1451 1451 1451 1450 1450 1449 1448 1448 1447 1447 1446 1446 1445 1444 1443 1442 1441 1440 1439 1438 1437 1436 1436 1435 1434 1433 1432 1431 1429 1428 1427 1426 1425 1424 1423
1426 1428 1429 1431 1432 1434 1436 1437 1439 1441 1442 1444 1445 1446 1447 1449 1450 1450 1450 1451 1451 1451 1451 1452 1452 1452 1451 1451 1451 1451 1451 1450 1450 1450 1450 1449 1449 1448 1448 1447 1447 1446 1446 1446 1445 1444 1444 1443 1442 1441 1440 1439 1438 1437 1436 1435 1435 1434 1433 1432 1431 1430 1428 1427 1426 1425 1424 1422 1421
1424 1425 1426 1428 1430 1431 1433 1435 1437 1439 1441 1442 1443 1444 1446 1446 1447 1448 1448 1448 1449 1449 1449 1450 1450 1450 1450 1449 1449 1449 1449 1449 1448 1448 1448 1447 1447 1447 1446 1446 1445 1445 1444 1444 1444 1443 1442 1441 1441 1440 1439 1438 1437 1436 1435 1434 1433 1433 1432 1431 1430 1429 1428 1426 1425 1424 1422 1421 1420
1421 1422 1424 1426 1427 1429 1431 1433 1435 1437 1438 1440 1441 1442 1444 1444 1445 1445 1446 1446 1446 1447 1447 1447 1447 1448 1448 1447 1447 1447 1447 1447 1446 1446 1446 1446 1445 1445 1444 1444 1444 1443 1443 1443 1442 1441 1441 1440 1439 1439 1438 1437 1436 1435 1434 1433 1432 1431 1431 1430 1429 1428 1427 1426 1424 1423 1421 1420 1418
1418 1420 1421 1423 1425 1427 1429 1431 1433 1435 1436 1438 1439 1440 1441 1442 1442 1443 1443 1444 1444 1444 1445 1445 1446 1446 1446 1445 1445 1445 1445 1445 1445 1444 1444 1443 1443 1443 1443 1442 1442 1442 1441 1441 1441 1440 1439 1439 1438 1437 1436 1436 1435 1434 1433 1432 1431 1431 1430 1429 1428 1426 1425 1424 1423 1421 1420 1418 1417
1416 1417 1419 1421 1423 1425 1427 1429 1431 1433 1435 1436 1437 1438 1439 1439 1440 1440 1441 1441 1441 1442 1443 1443 1443 1443 1443 1443 1443 1443 1443 1443 1443 1442 1442 1441 1441 1441 1441 1441 1440 1440 1440 1440 1439 1438 1438 1437 1436 1435 1435 1434 1434 1433 1432 1431 1430 1430 1428 1427 1426 1425 1424 1423 1422 1420 1419 1417 1416
1414 1415 1417 1419 1421 1423 1426 1428 1430 1431 1432 1433 1434 1435 1436 1436 1437 1438 1438 1439 1439 1440 1441 1441 1441 1441 1441 1441 1441 1441 1441 1441 1441 1441 1440 1440 1440 1439 1439 1439 1439 1438 1438 1438 1437 1437 1436 1435 1435 1434 1433 1433 1432 1431 1431 1430 1429 1428 1426 1426 1425 1424 1423 1422 1420 1419 1417 1416 1414
1411 1413 1415 1417 1419 1421 1424 1426 1427 1429 1430 1431 1431 1432 1433 1434 1434 1435 1436 1436 1437 1437 1438 1438 1438 1439 1439 1439 1439 1439 1439 1439 1439 1439 1438 1438 1438 1437 1437 1437 1437 1436 1436 1436 1436 1435 1434 1434 1433 1432 1431 1431 1431 1430 1429 1428 1427 1426 1425 1424 1423 1423 1421 1420 1419 1417 1416 1415 1413
1409 1411 1413 1415 1417 1419 1421 1423 1425 1426 1426 1427 1428 1429 1430 1431 1432 1432 1433 1434 1434 1435 1435 1436 1436 1436 1437 1437 1437 1437 1437 1437 1437 1437 1436 1436 1436 1436 1435 1435 1435 1435 1435 1435 1434 1433 1433 1432 1431 1430 1430 1429 1429 1428 1426 1426 1425 1424 1423 1422 1422 1421 1420 1419 1418 1416 1415 1413 1412
1407 1408 1410 1412 1414 1416 1418 1420 1421 1422 1423 1424 1425 1426 1427 1428 1429 1430 1431 1431 1432 1432 1433 1434 1434 1434 1435 1435 1435 1435 1435 1435 1435 1435 1435 1435 1434 1434 1433 1433 1433 1433 1433 1433 1432 1431 1431 1430 1430 1429 1428 1427 1426 1426 1425 1424 1423 1422 1422 1421 1421 1420 1418 1417 1416 1415 1413 1412 1410
1404 1406 1408 1410 1411 1413 1415 1417 1418 1419 1420 1421 1422 1423 1424 1425 1426 1427 1428 1429 1430 1430 1431 1431 1432 1432 1432 1433 1433 1433 1433 1433 1433 1433 1433 1433 1432 1432 1431 1431 1431 1432 1431 1431 1431 1430 1429 1428 1428 1427 1426 1426 1424 1423 1422 1422 1421 1421 1420 1420 1419 1418 1417 1416 1415 1414 1412 1411 1409
1402 1404 1405 1407 1408 1410 1411 1413 1414 1415 1416 1417 1418 1420 1421 1422 1423 1425 1426 1426 1427 1428 1428 1429 1430 1430 1430 1430 1431 1431 1431 1431 1431 1431 1431 1431 1430 1430 1430 1430 1430 1430 1430 1429 1429 1428 1427 1427 1426 1426 1425 1424 1422 1421 1421 1420 1420 1419 1419 1418 1417 1416 1415 1414 1413 1412 1411 1409 1408
1400 1401 1403 1404 1405 1406 1408 1409 1411 1411 1413 1414 1416 1417 1418 1420 1421 1422 1423 1424 1425 1425 1426 1427 1427 1427 1428 1428 1428 1429 1429 1429 1429 1429 1429 1429 1429 1428 1428 1428 1428 1428 1428 1428 1427 1426 1426 1425 1424 1424 1423 1422 1421 1420 1419 1419 1418 1418 1417 1417 1416 1415 1414 1413 1412 1411 1409 1408 1407
1398 1399 1401 1401 1402 1403 1405 1406 1407 1408 1410 1411 1413 1415 1416 1417 1419 1420 1421 1422 1422 1423 1424 1425 1425 1425 1426 1426 1427 1427 1427 1427 1427 1427 1427 1427 1427 1426 1426 1426 1426 1426 1426 1426 1426 1425 1424 1423 1423 1422 1421 1420 1419 1418 1418 1417 1417 1416 1416 1415 1414 1413 1412 1411 1410 1409 1408 1407 1406
1396 1397 1398 1399 1399 1401 1402 1403 1404 1406 1407 1409 1411 1412 1414 1415 1416 1417 1419 1420 1420 1421 1422 1422 1423 1423 1424 1425 1425 1425 1425 1425 1425 1425 1425 1425 1425 1425 1425 1424 1424 1424 1424 1424 1424 1423 1422 1421 1421 1420 1420 1419 1418 1417 1416 1416 1416 1415 1415 1414 1413 1412 1411 1410 1409 1408 1407 1406 1405
1393 1394 1395 1396 1397 1398 1399 1401 1402 1403 1405 1407 1409 1410 1411 1413 1414 1416 1416 1417 1418 1419 1420 1420 1421 1421 1422 1423 1423 1423 1423 1423 1423 1423 1423 1423 1423 1423 1423 1422 1422 1422 1422 1422 1422 1421 1421 1420 1419 1419 1418 1417 1416 1416 1415 1415 1414 1414 1413 1412 1411 1411 1410 1409 1407 1406 1406 1405 1404
1390 1391 1393 1394 1395 1396 1397 1398 1400 1402 1403 1405 1406 1408 1409 1411 1412 1413 1414 1415 1416 1417 1418 1418 1419 1420 1420 1421 1421 1421 1421 1421 1421 1422 1422 1422 1422 1421 1421 1421 1420 1420 1420 1420 1420 1419 1419 1418 1418 1417 1416 1416 1415 1414 1414 1413 1413 1412 1411 1411 1410 1409 1408 1407 1406 1406 1405 1404 1402
Wind_Speed
37 35 34 33 32 32 31 30 30 29 28 28 27 27 26 25 24 23 22 21 20 19 18 18 18 18 19 19 19 20 20 20 21 21 21 21 21 21 21 21 21 21 20 20 20 20 20 20 21 21 22 23 23 23 23 23 24 24 25 25 26 26 26 26 26 25 25 25 25
37 36 34 34 33 32 32 31 30 29 29 28 27 27 26 25 24 23 22 21 20 19 18 18 18 18 19 19 19 20 20 20 20 21 21 21 21 21 21 21 21 21 20 20 20 20 20 20 21 22 22 23 23 24 24 23 24 25 26 27 27 27 27 27 27 27 27 27 27
37 36 35 34 34 33 32 31 31 30 29 28 27 26 26 25 24 23 22 21 20 19 19 19 18 18 19 19 20 20 20 20 20 21 21 21 21 21 21 21 21 20 20 20 20 20 20 20 21 22 23 23 23 24 24 23 24 25 26 27 28 28 28 29 29 29 28 29 29
38 37 36 35 34 33 32 31 30 30 29 28 27 27 26 26 25 24 22 21 20 20 19 18 18 19 19 20 20 20 20 20 20 21 20 20 20 20 21 21 20 20 20 20 20 20 20 21 21 22 23 23 23 24 24 23 24 25 26 27 28 29 29 30 30 30 30 30 30
38 37 36 35 34 33 32 31 30 30 29 28 28 27 27 26 25 24 23 21 20 19 18 18 19 19 20 20 20 20 20 20 20 20 20 20 20 20 20 20 20 20 20 20 20 20 21 21 22 22 23 23 24 24 23 23 24 25 26 27 28 29 30 30 31 31 31 32 32
38 37 36 35 34 33 32 32 31 30 29 29 29 28 28 27 25 24 22 21 20 19 19 19 19 20 20 20 20 20 20 20 20 20 20 20 20 20 20 20 20 20 20 20 20 20 21 21 22 23 23 23 24 24 23 23 23 24 25 26 27 28 29 29 30 30 31 32 32
38 37 36 35 34 34 33 32 31 30 30 30 30 29 28 26 25 23 22 21 20 19 19 19 19 20 20 20 20 20 20 20 20 20 20 20 20 20 20 20 20 20 20 20 20 20 21 21 22 23 23 24 24 24 23 23 23 24 25 26 26 26 27 28 28 29 30 31 32
38 37 36 36 35 34 33 33 32 31 31 31 30 29 28 26 24 23 22 21 20 20 19 19 19 20 20 20 20 20 20 20 20 20 20 20 20 20 20 20 20 20 20 20 20 20 21 21 22 23 23 24 24 24 24 23 24 24 25 26 26 26 26 27 27 28 29 30 31
38 38 37 36 35 35 34 33 33 32 32 32 30 29 27 26 24 23 22 21 20 20 19 19 19 19 20 20 20 20 20 20 20 20 20 20 20 20 20 20 20 20 20 19 20 20 21 22 22 23 23 24 24 24 24 24 24 25 26 26 27 27 26 27 27 28 28 29 30
38 38 37 36 36 35 35 34 34 33 33 32 30 29 27 26 25 24 23 21 20 20 20 20 19 19 20 20 20 20 20 20 20 21 21 20 20 20 20 20 20 20 20 19 20 20 21 22 22 23 23 24 24 24 24 24 25 26 26 27 27 27 27 27 27 28 28 29 29
38 37 37 37 36 36 35 35 35 34 33 32 31 29 28 26 25 24 22 21 21 20 20 19 19 19 20 20 20 20 20 20 21 21 21 20 20 20 20 20 20 20 20 20 20 20 21 22 22 23 23 23 24 24 25 25 25 26 27 27 28 28 28 28 27 27 27 28 28
38 38 37 37 36 36 36 36 36 35 33 32 31 29 28 26 25 23 22 22 21 20 20 19 19 19 20 20 20 20 20 21 21 21 21 20 20 20 20 20 20 20 20 20 20 20 21 22 23 23 23 24 24 24 25 25 26 27 27 28 28 28 28 28 27 27 27 27 27
38 38 38 37 37 37 37 37 36 35 34 32 31 29 28 26 25 23 22 22 21 20 20 19 19 20 20 20 20 20 21 21 21 21 21 21 20 20 20 19 20 20 20 20 20 21 21 22 23 23 24 24 24 25 25 26 26 27 28 28 28 28 28 28 27 27 26 26 27
37 38 38 38 38 38 38 38 37 36 34 33 31 29 28 26 25 23 23 22 21 20 20 20 20 20 20 20 20 20 21 21 21 21 21 20 20 20 20 19 20 20 20 20 20 21 22 22 23 23 24 24 25 25 25 26 26 27 28 28 29 29 28 28 27 27 27 27 27
38 39 39 39 39 39 39 38 38 36 35 33 31 29 27 26 24 23 22 21 21 20 20 20 20 20 20 20 20 21 21 21 21 21 21 20 20 20 19 19 20 20 20 20 21 21 22 22 23 23 24 24 25 25 25 26 26 27 28 28 28 28 28 28 27 27 27 27 28
39 39 40 40 40 40 40 39 38 36 35 33 31 29 27 25 24 23 22 21 21 21 21 20 20 20 20 20 21 21 21 21 21 21 21 20 20 19 19 20 20 20 20 20 21 21 22 22 23 23 24 24 25 25 25 26 26 27 27 27 27 27 27 27 26 26 27 27 28
39 40 40 41 41 40 40 39 38 36 35 33 31 29 27 25 24 23 22 21 21 21 21 20 20 20 20 21 21 21 21 22 21 21 21 20 20 19 19 20 20 20 20 21 21 22 22 22 22 23 24 24 25 25 25 26 26 26 26 26 26 26 25 25 25 26 26 27 29
40 40 40 41 41 40 40 39 38 36 34 32 30 28 26 25 23 22 21 21 21 21 21 20 20 20 21 21 21 21 21 22 21 21 20 20 20 20 20 20 20 20 20 21 21 22 22 22 22 23 23 24 24 25 25 25 25 25 25 25 24 24 24 24 24 25 26 28 29
40 40 40 41 40 40 39 38 37 36 34 32 30 27 26 24 23 22 21 21 21 21 21 20 21 21 21 21 21 21 21 21 21 21 20 20 20 20 20 20 20 20 21 21 21 22 22 22 22 23 23 24 24 24 25 25 25 24 24 23 23 23 23 23 24 25 27 29 30
40 40 40 40 40 39 39 38 37 35 34 31 29 27 25 24 23 22 21 21 21 21 21 21 21 21 21 21 21 21 21 21 21 21 20 20 20 20 20 20 20 20 21 21 21 22 22 22 22 23 23 24 24 24 24 24 24 23 23 22 22 22 23 24 25 27 28 30 32
39 39 39 39 39 38 38 37 36 35 33 31 29 27 25 24 23 22 21 21 21 21 21 22 21 21 21 21 21 21 21 21 21 21 20 20 20 19 20 20 20 21 21 21 21 21 22 22 22 23 23 24 24 24 24 24 23 22 22 21 22 22 23 25 26 28 30 31 33
39 38 38 38 38 38 37 37 36 35 33 31 29 27 25 24 22 21 21 21 21 22 22 22 22 21 21 21 21 21 21 21 21 21 20 20 19 19 20 20 21 21 21 21 21 21 21 22 22 23 23 23 24 24 24 23 23 22 21 21 22 23 24 25 27 29 31 33 35
37 37 38 38 38 37 37 37 36 35 33 31 29 27 25 24 22 21 21 21 22 22 22 22 22 21 21 21 21 21 22 22 21 21 20 20 19 19 20 20 21 21 21 21 21 21 21 22 22 22 23 23 24 23 23 22 22 22 22 22 23 24 25 26 28 30 32 34 36
36 37 37 38 38 38 37 37 36 35 33 30 29 27 25 23 22 21 21 21 22 23 23 22 21 21 21 21 22 22 22 22 21 21 20 20 20 20 20 20 20 21 21 20 21 21 21 22 22 23 23 23 23 23 23 22 22 22 23 24 25 26 27 28 30 32 34 36 37
36 37 38 38 38 38 38 37 36 34 32 30 28 26 24 23 21 21 21 21 22 23 23 22 22 21 22 22 22 22 22 22 21 20 20 19 20 20 20 20 20 20 20 20 20 21 21 22 22 23 23 23 23 23 23 23 23 23 24 25 26 28 29 31 32 34 35 37 36
36 37 38 38 38 38 37 37 35 34 32 30 28 26 24 22 21 21 21 22 22 23 23 23 22 22 22 23 23 23 23 22 21 20 20 19 20 20 20 20 20 20 20 20 21 21 21 21 22 22 22 22 22 22 23 23 24 24 24 25 27 28 30 32 34 35 35 35 32
36 37 38 38 38 38 37 36 35 33 31 29 27 25 24 22 22 22 22 22 22 23 23 23 23 23 23 23 23 23 23 22 21 21 20 20 20 20 20 20 20 20 20 21 21 21 21 21 21 21 21 21 20 21 22 23 23 23 24 25 27 28 30 31 33 34 33 31 28
36 37 38 38 38 38 37 35 34 33 31 29 27 25 24 23 22 22 22 22 23 23 24 24 23 23 23 24 24 23 23 22 21 21 20 20 20 20 20 20 20 20 20 21 21 21 21 21 22 21 21 20 19 20 21 22 23 24 24 26 27 28 29 30 31 30 29 27 26
36 36 38 38 38 37 36 35 34 32 30 28 26 25 24 24 23 23 23 23 23 24 24 24 23 23 24 24 24 23 23 22 21 21 21 21 20 20 20 20 20 20 21 21 21 21 21 22 22 22 21 19 18 19 20 21 23 24 25 26 26 27 27 28 28 27 26 25 25
35 36 37 38 38 37 36 35 33 31 29 27 26 26 25 25 24 24 24 24 24 24 23 23 23 24 24 24 24 24 23 22 21 21 21 21 21 20 20 20 21 21 21 21 21 22 22 22 22 22 21 19 18 18 20 21 22 23 24 25 25 25 25 25 25 24 24 24 25
34 35 36 37 37 37 35 34 32 30 29 28 27 27 26 25 25 25 25 24 24 23 23 23 24 24 24 24 24 24 23 22 21 21 21 21 21 21 20 21 21 21 21 21 22 22 22 22 22 22 21 19 18 18 19 21 22 24 25 25 24 23 23 23 23 23 23 24 25
34 34 35 36 36 36 35 33 32 31 30 29 28 28 27 26 26 26 25 24 24 23 24 24 24 24 25 25 24 24 23 22 21 21 21 21 21 21 21 21 21 21 22 22 22 22 22 22 22 22 21 19 18 18 19 21 23 24 24 23 22 21 21 22 22 22 23 24 25
34 33 34 35 35 35 34 33 32 31 31 30 29 28 28 27 26 26 25 25 24 24 24 24 24 24 24 24 24 24 23 22 21 21 21 21 21 21 22 21 21 21 22 22 22 22 22 22 22 22 21 19 18 19 20 21 23 23 22 21 19 19 19 20 21 22 23 24 25
33 32 32 33 34 34 34 33 33 32 32 31 30 29 28 28 27 27 26 25 24 24 23 23 24 24 24 24 24 24 23 22 21 21 21 21 21 22 22 22 21 21 21 22 22 22 22 22 22 22 21 20 19 19 20 21 22 21 19 18 17 17 18 20 21 22 24 25 26
33 31 31 31 32 34 34 34 34 34 34 33 31 30 29 28 28 27 26 25 24 23 23 23 23 24 24 25 25 24 23 22 21 20 20 21 22 22 22 22 21 21 22 22 22 22 22 22 22 21 21 20 20 20 20 21 20 18 17 16 16 17 18 19 21 22 24 25 26
32 30 29 30 31 33 35 35 36 36 35 34 32 31 29 29 28 27 26 25 24 23 23 23 23 24 25 25 25 24 23 21 21 20 20 21 22 23 23 22 22 22 22 22 22 22 22 22 21 21 21 21 21 21 20 19 17 16 15 14 15 16 17 19 21 22 24 25 25
32 30 28 29 31 33 35 36 37 37 36 35 33 31 30 29 28 27 26 25 24 24 23 23 24 24 25 25 24 23 22 21 21 21 21 22 22 23 23 22 22 22 22 22 22 22 21 21 21 21 21 21 21 20 19 17 15 14 13 14 15 16 17 19 21 22 24 25 25
32 30 29 29 31 33 35 37 38 38 37 35 33 31 29 28 28 27 26 25 24 23 23 23 24 24 24 24 23 22 21 21 21 21 22 22 22 22 23 23 22 22 21 21 21 21 21 21 21 21 20 20 20 19 17 16 14 13 13 14 15 17 18 19 21 23 24 24 24
32 30 29 30 31 33 36 38 39 39 37 35 32 30 29 28 28 27 26 25 24 23 23 23 23 24 24 23 23 23 22 22 22 22 22 22 22 22 23 23 23 22 21 21 21 21 21 20 20 20 20 20 19 17 15 14 14 13 12 13 16 17 18 20 22 23 24 24 24
33 31 30 31 32 34 36 38 39 39 37 34 32 30 29 28 28 27 26 24 23 23 23 23 23 23 23 23 23 23 23 22 22 22 22 22 22 22 23 23 23 22 21 21 20 20 20 20 19 19 19 19 17 15 14 13 13 12 12 14 16 18 19 21 22 23 23 23 23
33 32 32 31 32 34 36 38 39 38 36 34 31 30 29 28 27 26 25 24 23 23 23 23 23 23 23 24 24 24 23 23 22 22 22 22 22 22 23 23 23 22 21 21 20 20 20 19 19 19 18 17 15 14 12 12 13 12 12 14 16 18 20 22 23 23 23 23 23
Wind_Direction
246 246 246 246 247 249 251 253 254 255 254 253 253 254 256 257 260 261 262 263 265 267 269 271 272 273 274 274 276 277 278 279 280 282 283 285 286 288 290 291 293 295 297 298 299 299 298 298 296 295 294 293 292 290 287 284 281 278 277 276 277 278 279 280 281 283 284 287 289
246 246 246 246 247 248 250 252 253 254 253 253 253 254 256 257 259 261 262 263 264 266 268 269 270 272 273 274 275 276 277 278 279 280 282 283 285 287 289 291 293 295 297 298 298 298 298 298 296 295 294 294 293 291 289 286 282 279 278 277 277 278 278 279 280 282 284 285 287
246 246 245 245 246 247 249 251 253 254 254 253 253 254 255 257 258 260 261 262 263 265 266 268 270 271 272 273 273 274 276 277 278 279 281 283 285 287 289 291 293 295 296 297 298 298 298 297 297 296 296 295 294 293 292 289 285 281 279 278 278 278 279 279 281 282 284 285 287
246 245 245 245 246 247 250 252 254 255 255 254 253 253 254 256 258 259 261 262 263 264 266 268 270 271 271 272 272 274 275 276 277 278 280 282 284 287 289 291 292 294 296 297 297 298 298 297 297 296 296 296 296 295 295 293 289 284 281 279 279 279 280 281 282 283 284 286 287
246 245 245 245 247 248 251 253 254 254 254 253 252 252 253 255 257 259 260 261 262 264 267 268 269 269 270 271 272 273 274 275 277 278 280 282 284 286 288 290 292 294 295 296 296 297 297 297 297 297 297 297 297 297 297 296 292 288 284 282 281 281 281 282 283 285 286 286 287
246 246 246 246 247 248 250 252 253 253 252 251 250 251 253 255 257 259 260 261 263 264 265 266 268 269 270 271 272 273 274 275 277 278 280 282 284 286 287 289 291 293 294 295 296 297 297 297 297 297 297 297 297 298 298 296 293 290 288 286 284 284 284 285 286 287 288 288 288
247 246 246 246 247 248 249 251 252 251 250 250 250 251 253 255 257 259 260 261 262 262 263 265 267 268 270 270 272 273 274 275 276 278 280 281 283 285 287 289 290 292 293 294 295 296 296 297 296 297 298 298 298 298 298 296 293 291 289 288 288 288 288 289 290 291 291 290 290
247 246 246 246 247 248 249 250 250 250 249 250 251 252 254 256 257 258 259 260 261 262 263 265 267 268 269 270 271 272 274 275 276 277 279 281 282 284 286 288 290 291 293 294 295 295 296 296 296 297 298 298 298 298 298 296 293 291 290 290 291 291 291 292 293 294 293 293 292
246 245 245 245 246 247 248 249 249 249 249 250 251 253 254 255 256 257 258 259 261 262 264 265 266 268 269 270 271 273 274 275 276 277 278 280 281 283 285 287 289 290 292 293 294 294 295 295 296 297 298 299 299 298 298 296 294 292 291 291 292 293 294 294 295 295 296 295 294
246 245 244 244 245 246 247 248 248 249 250 251 251 252 253 253 255 256 258 259 261 262 263 265 267 268 269 270 271 272 274 275 276 276 277 279 281 283 285 287 288 290 291 292 293 293 294 295 296 297 299 299 299 298 298 296 294 293 293 293 294 294 295 296 297 297 297 296 295
246 245 244 244 244 245 246 247 248 249 250 251 251 251 251 252 254 256 257 259 260 262 264 266 267 268 269 270 271 272 273 274 275 275 277 278 280 282 284 286 288 289 291 291 292 293 294 295 296 298 299 299 299 298 298 297 296 295 294 295 295 296 297 298 299 299 298 297 296
246 245 244 244 244 245 246 247 248 249 250 250 251 251 251 252 254 255 256 258 260 263 265 266 267 268 269 270 271 272 272 273 274 275 276 277 279 281 283 285 287 289 290 291 292 292 293 295 297 298 299 299 299 299 298 298 297 296 296 297 297 297 298 300 301 300 299 298 296
245 244 243 243 243 244 245 247 248 249 250 250 250 250 251 252 253 254 255 257 260 263 265 266 266 267 268 269 270 271 271 272 273 274 275 276 278 280 282 284 286 288 290 291 292 292 293 295 297 298 299 300 300 299 299 298 298 297 298 299 299 299 300 301 301 301 299 298 297
244 243 242 242 242 243 245 246 247 248 249 250 250 250 250 251 252 253 255 258 261 263 264 265 266 267 268 268 269 269 270 271 272 273 274 276 278 280 282 284 286 288 289 290 291 292 293 295 296 298 299 300 300 300 300 299 298 299 299 300 301 301 302 302 302 301 300 299 298
244 242 241 241 241 242 244 245 247 248 249 249 249 249 249 250 251 252 255 258 261 263 264 265 266 266 267 267 268 268 269 270 271 272 273 275 278 280 282 284 286 287 289 290 291 292 293 295 296 298 299 299 300 300 300 299 299 300 300 301 302 302 303 303 302 301 301 300 300
243 241 240 240 241 242 243 244 246 247 248 249 249 248 248 249 250 252 254 258 261 263 264 265 266 266 266 266 266 267 268 269 270 272 273 275 278 280 282 284 285 287 288 289 290 291 293 294 296 297 298 299 300 300 300 300 300 300 301 302 302 303 303 303 303 302 302 302 302
242 241 240 240 240 241 242 244 245 247 248 249 248 248 248 248 249 251 254 258 261 263 264 265 266 266 265 265 265 267 267 269 270 271 273 275 278 279 281 283 285 286 287 288 290 291 293 294 295 296 297 298 298 299 300 300 300 301 302 303 303 303 303 304 304 304 304 304 304
242 241 240 240 240 241 242 243 244 246 248 248 248 247 247 248 249 251 255 259 262 264 265 265 265 265 264 265 265 266 267 268 270 271 273 275 277 279 281 282 284 285 286 288 289 291 293 294 295 296 296 297 297 298 299 300 301 302 303 304 304 305 305 305 305 306 307 307 308
243 241 240 240 240 241 242 243 244 246 247 248 247 247 246 247 248 251 255 259 262 264 265 265 264 264 264 264 265 266 267 268 270 271 272 274 276 278 280 282 283 285 286 287 289 291 293 294 295 295 296 296 297 297 298 299 300 302 303 304 305 306 307 308 309 310 311 312 313
244 242 241 241 241 241 241 242 244 245 247 247 246 245 245 245 247 250 255 259 262 264 264 264 263 263 263 264 265 266 267 267 269 270 272 274 276 278 280 282 283 284 285 287 289 292 293 294 295 296 296 296 297 297 298 298 299 301 302 304 306 309 311 313 314 315 315 316 316
245 243 242 242 241 241 241 242 243 245 246 246 245 244 244 244 246 250 255 260 262 262 263 263 263 263 263 264 265 265 266 267 268 269 271 273 275 277 279 281 282 284 286 288 290 292 293 294 295 296 296 297 297 297 297 297 297 299 302 305 309 313 315 317 317 317 318 318 318
246 244 243 242 241 241 241 241 242 244 244 245 244 243 242 243 246 250 255 259 261 262 262 263 263 264 264 264 265 265 265 266 267 269 271 273 274 277 278 280 282 284 286 288 290 292 293 294 295 296 297 297 297 296 295 295 296 299 304 310 314 317 318 319 319 319 319 319 319
248 245 243 241 240 240 240 240 241 242 243 243 242 241 241 242 246 250 255 258 261 262 263 263 264 264 264 264 264 264 264 265 266 268 270 272 274 276 277 279 281 284 286 288 290 292 293 295 296 297 297 296 295 294 293 295 298 304 310 314 317 319 320 320 320 321 320 320 319
249 245 242 240 239 238 238 239 240 241 241 241 241 240 240 242 245 250 254 258 261 263 264 264 264 264 263 263 263 263 263 264 266 267 270 272 274 275 277 279 281 283 286 288 290 292 294 296 297 298 298 297 296 296 298 301 305 310 314 317 319 320 321 322 322 321 320 319 318
249 245 242 239 238 237 237 238 239 239 240 240 239 239 239 241 245 249 254 258 261 263 264 264 264 263 263 262 262 262 263 264 266 267 269 270 273 275 276 278 281 283 285 287 289 291 294 296 299 300 301 301 302 303 305 307 309 312 315 316 318 318 320 320 320 319 318 317 317
249 244 241 239 237 236 236 237 238 239 239 239 238 238 239 241 244 248 253 258 261 263 264 264 263 263 262 262 262 262 263 264 266 267 268 270 271 273 275 278 280 282 284 286 288 290 293 296 298 300 302 303 304 305 305 305 306 309 312 314 315 315 315 316 315 315 315 316 318
249 244 240 238 237 236 236 236 237 237 238 237 237 237 238 240 243 248 252 257 260 262 263 263 262 262 262 261 261 261 262 264 265 267 268 269 271 272 274 277 279 281 283 285 287 289 292 295 297 299 300 300 298 297 297 299 302 306 309 310 310 310 310 310 311 313 316 318 319
250 245 241 238 236 235 235 235 236 236 236 236 236 237 238 240 243 246 251 255 259 261 262 262 262 262 262 261 261 261 262 263 264 266 268 269 271 272 274 277 279 280 282 283 286 288 291 295 297 298 298 297 296 296 298 300 302 304 305 305 304 304 306 308 312 315 318 320 319
251 246 241 238 236 235 235 234 234 235 235 235 235 236 237 239 241 245 249 253 257 259 262 262 263 262 262 261 261 261 261 262 264 265 267 269 271 273 275 277 279 280 281 283 285 288 291 294 296 297 297 297 298 298 298 298 299 300 299 298 299 301 306 311 315 318 320 319 318
253 247 242 238 236 235 234 234 234 234 234 234 234 235 236 237 240 244 248 252 255 259 261 263 262 261 261 260 260 260 261 261 263 265 267 268 270 273 275 277 278 279 281 282 284 287 290 293 295 296 297 298 297 296 294 295 295 294 293 293 297 303 309 315 318 319 319 318 317
254 248 243 239 236 235 234 233 233 232 232 232 233 234 235 236 239 243 247 251 255 258 261 261 261 260 260 260 260 260 260 261 263 264 266 268 270 273 275 276 277 279 280 282 284 287 289 292 294 296 297 296 294 293 292 291 290 288 288 291 298 306 312 317 318 318 316 316 317
255 250 244 239 236 234 233 232 231 231 230 231 232 233 234 235 239 242 246 250 253 256 258 259 260 260 260 259 259 260 260 261 262 264 266 268 270 272 273 275 276 278 280 282 284 286 288 291 293 295 295 295 293 292 290 288 285 285 287 293 301 309 315 318 318 316 315 316 320
256 251 245 240 236 234 232 231 230 229 229 230 231 231 232 234 237 241 245 248 251 254 257 258 260 260 260 260 259 260 260 261 262 263 265 267 269 271 272 274 275 277 279 281 283 285 288 290 292 294 294 294 293 290 287 285 284 286 290 297 304 311 316 318 316 314 314 318 323
257 252 246 241 236 233 231 229 228 228 228 229 230 230 231 233 236 240 243 247 250 253 256 258 259 260 259 259 259 259 259 260 261 263 265 267 268 270 271 273 275 276 278 280 282 284 287 289 291 293 294 293 290 286 284 284 286 290 294 301 307 314 318 318 314 313 315 321 325
257 253 247 241 235 231 229 227 226 226 227 228 228 229 229 231 235 239 243 246 249 252 255 257 258 258 258 258 257 257 258 259 261 263 264 266 267 269 270 272 274 275 277 279 281 284 286 288 290 292 292 291 288 285 284 285 289 293 297 303 311 317 319 317 312 312 316 322 325
259 254 247 240 234 230 227 225 224 225 226 227 227 227 228 230 234 238 242 245 248 250 252 254 255 256 257 257 257 257 258 260 261 262 263 265 266 268 270 272 273 274 275 277 280 282 285 287 289 291 291 290 288 287 287 288 291 293 299 307 316 320 319 315 311 313 318 324 325
260 255 248 240 233 228 225 224 223 224 225 226 226 226 227 229 233 237 240 243 246 248 250 252 254 255 256 257 258 258 259 260 261 261 262 263 265 268 270 271 272 273 274 276 279 281 284 286 288 289 290 289 289 289 290 290 291 293 300 311 319 322 319 313 312 315 321 324 325
263 256 248 239 232 227 224 223 222 223 225 225 225 225 226 228 232 236 239 242 245 247 249 251 253 255 257 258 259 259 259 259 259 260 261 263 265 267 270 271 272 273 274 276 278 280 283 285 287 288 288 288 288 288 290 291 290 293 302 315 322 323 319 313 313 318 322 324 324
265 257 248 239 232 226 223 222 222 223 224 225 224 224 225 227 231 235 238 241 244 246 248 250 252 254 256 258 258 257 257 257 258 259 261 263 265 267 269 271 272 273 274 276 278 280 282 284 286 288 288 287 287 287 288 289 289 292 304 317 324 324 319 315 316 320 322 322 322
267 258 249 240 232 226 223 222 222 223 224 224 223 222 224 227 231 234 237 240 242 244 246 249 251 253 255 256 256 256 256 256 257 259 261 263 265 266 268 270 272 274 275 277 278 280 282 285 286 287 288 287 286 287 288 289 288 293 305 319 325 323 319 316 318 319 320 318 319
267 259 250 241 233 227 223 221 222 223 224 223 222 222 223 226 230 233 236 238 240 242 244 247 249 252 253 254 255 256 256 256 256 258 261 263 264 266 267 269 272 274 276 277 279 281 283 285 287 287 287 286 287 287 288 288 288 293 305 319 324 322 318 316 317 317 316 315 318